sat.trackr.live / text

‹ back to catalog

STARLINK-4267

NORAD 52864 · 2022-062AL

PAYLOAD ACTIVE UNKNOWN

§ Identity

Operator
Country
US
Launch date
2022-06-17
Launch site
AFETR
Launch vehicle
Mass (kg)
RCS (m²)

Purposes: comms

External: N2YO · Heavens-Above · Gunter

§ Orbital elements

Epoch: 2026-09-19T12:56:59.213472Z

Period
93.85 min
Inclination
53.1610°
Eccentricity
0.0001272
Mean motion
15.34386229 rev/d
Perigee alt
461.9 km
Apogee alt
463.6 km
Semi-major
6,840.9 km
B*
2.1818e-5
RAAN
221.8580°
Arg perigee
87.6273°
Mean anomaly
272.4875°
Rev number
23,535

§ Raw data

STARLINK-42671 52864U 22062AL  26262.53957423  .00000361  00000+0  21818-4 0  99962 52864  53.1610 221.8580 0001272  87.6273 272.4875 15.34386229235350

JSON: /api/v1/satellites/52864 · /tle

For live sub-satellite position, see the globe view (requires WebGL).

§ Visibility from observer

Set your observer location to see the next 7 days of passes ≥ 10°. The values pass through the URL so the page stays shareable.

No JS? Fill the form by hand. The geolocation button needs JavaScript.